DW1779 Weather Reports


time (UTC)temp
C
wind
direction
speed
KPH
gust
KPH
rain 1hr
cm
rain 24hr
cm
rain mn
cm
humidity
%
barometer
mb
20260506051042 6 15 1.6 4.8 0.05 0.97 0.00 95 1013.4
20260506050641 6 46 0.0 6.4 0.05 0.97 0.00 95 1013.6
20260506045040 6 327 3.2 8.0 0.05 0.97 0.97 94 1013.0
20260506044540 6 340 3.2 8.0 0.03 0.94 0.94 94 1013.4
20260506044039 6 34 3.2 16.1 0.03 0.94 0.94 94 1013.4
20260506043542 6 346 3.2 12.9 0.00 0.91 0.91 94 1013.2
20260506043038 6 355 3.2 9.7 0.00 0.91 0.91 94 1013.1
20260506042537 6 13 1.6 14.5 0.00 0.91 0.91 94 1012.8
20260506042037 5 360 1.6 14.5 0.00 0.91 0.91 94 1012.6
20260506041539 5 65 3.2 14.5 0.00 0.91 0.91 94 1012.8
20260506041036 5 351 3.2 9.7 0.00 0.91 0.91 94 1012.6
20260506040637 5 333 3.2 9.7 0.00 0.91 0.91 94 1012.7
20260506040040 5 355 3.2 14.5 0.00 0.91 0.91 94 1012.7
20260506035542 5 70 3.2 16.1 0.00 0.91 0.91 94 1012.9
20260506035040 6 348 4.8 16.1 0.00 0.91 0.91 94 1013.0
20260506034541 5 322 4.8 12.9 0.00 0.91 0.91 94 1013.2
20260506034040 5 49 1.6 16.1 0.03 0.91 0.91 94 1013.0
20260506033539 5 334 3.2 16.1 0.05 0.91 0.91 94 1013.1
20260506033039 5 9 6.4 20.9 0.05 0.91 0.91 94 1013.1
20260506032538 5 41 8.0 20.9 0.08 0.91 0.91 94 1012.4
20260506032038 5 11 6.4 14.5 0.08 0.91 0.91 94 1013.1
20260506031540 5 306 6.4 16.1 0.10 0.91 0.91 94 1012.7
20260506031038 5 290 6.4 19.3 0.10 0.91 0.91 94 1013.2
20260506030503 5 69 6.4 19.3 0.10 0.91 0.91 94 1013.0
20260506030003 5 5 9.7 20.9 0.10 0.91 0.91 94 1013.0
20260506025502 5 335 6.4 20.9 0.10 0.91 0.91 94 1012.6
20260506025100 5 325 9.7 17.7 0.13 0.91 0.91 94 1012.4
20260506024606 5 331 6.4 17.7 0.13 0.91 0.91 94 1012.3
20260506024059 5 313 6.4 17.7 0.13 0.89 0.89 94 1012.5
20260506023558 5 344 4.8 20.9 0.13 0.86 0.86 94 1012.1
20260506023056 6 10 9.7 22.5 0.13 0.86 0.86 94 1011.9
20260506022555 6 355 11.3 22.5 0.13 0.84 0.84 94 1012.1
20260506022055 6 336 6.4 19.3 0.13 0.84 0.84 94 1012.2
20260506021554 6 23 6.4 22.5 0.13 0.81 0.81 94 1012.1
20260506021056 6 5 8.0 22.5 0.18 0.81 0.81 95 1012.0
20260506020653 6 315 4.8 14.5 0.20 0.81 0.81 95 1011.7
20260506020109 6 26 4.8 12.9 0.23 0.81 0.81 95 1011.9
20260506015556 6 336 1.6 12.9 0.23 0.81 0.81 94 1011.8
20260506015056 6 355 3.2 12.9 0.20 0.79 0.79 94 1011.8
20260506014611 6 333 3.2 16.1 0.23 0.79 0.79 94 1011.6
20260506014055 6 309 4.8 16.1 0.23 0.76 0.76 94 1011.6
20260506013555 6 16 3.2 11.3 0.25 0.71 0.71 94 1011.6
20260506013051 6 67 4.8 17.7 0.25 0.71 0.71 94 1011.4
20260506012550 6 11 6.4 16.1 0.23 0.71 0.71 94 1011.4
20260506012051 6 30 1.6 12.9 0.25 0.71 0.71 94 1011.7
20260506011612 6 303 4.8 20.9 0.23 0.69 0.69 94 1011.8
20260506011048 6 33 4.8 20.9 0.20 0.64 0.64 94 1011.0
20260506010647 6 24 6.4 20.9 0.20 0.61 0.61 94 1011.1
20260506010052 6 26 8.0 20.9 0.18 0.58 0.58 94 1010.8
20260506005552 6 5 6.4 27.4 0.18 0.58 0.58 94 1010.8
20260506005051 6 350 8.0 27.4 0.18 0.58 0.58 94 1010.7
20260506004601 6 5 8.0 19.3 0.15 0.56 0.56 94 1010.8
20260506004049 6 15 4.8 16.1 0.15 0.53 0.53 94 1010.9
20260506003548 6 303 6.4 16.1 0.10 0.48 0.48 94 1010.7
20260506003047 6 360 8.0 24.1 0.10 0.48 0.48 94 1010.3
20260506002545 6 36 8.0 24.1 0.10 0.48 0.48 94 1010.3
20260506002045 6 325 3.2 16.1 0.08 0.46 0.46 94 1010.4
20260506001546 6 360 3.2 14.5 0.08 0.46 0.46 94 1010.3
20260506001044 6 341 4.8 16.1 0.08 0.43 0.43 94 1010.4
20260506000644 6 65 4.8 16.1 0.05 0.41 0.41 94 1010.1
20260506000114 6 5 4.8 14.5 0.08 0.41 0.41 94 1010.3
20260505235552 6 21 1.6 17.7 0.10 0.41 0.41 94 1010.6
20260505235047 6 329 6.4 17.7 0.13 0.41 0.41 94 1010.4
20260505234552 6 320 3.2 19.3 0.15 0.41 0.41 94 1010.5
20260505234046 6 325 4.8 17.7 0.13 0.38 0.38 93 1010.5
20260505233545 6 5 4.8 12.9 0.13 0.38 0.38 93 1010.4
20260505233044 6 34 6.4 11.3 0.13 0.38 0.38 93 1010.2
20260505232545 6 26 4.8 12.9 0.13 0.38 0.38 93 1009.7
20260505232046 6 355 4.8 9.7 0.13 0.38 0.38 93 1010.2
20260505231542 6 294 3.2 14.5 0.13 0.38 0.38 93 1009.7
20260505231045 6 327 4.8 14.5 0.10 0.36 0.36 92 1009.7
20260505230643 6 9 3.2 16.1 0.10 0.36 0.36 92 1009.5
20260505230104 6 5 4.8 16.1 0.08 0.33 0.33 92 1009.8
20260505225551 6 348 4.8 19.3 0.05 0.30 0.30 91 1009.8
20260505225050 7 19 6.4 19.3 0.03 0.28 0.28 90 1009.8
20260505224549 7 360 6.4 16.1 0.00 0.25 0.25 90 1009.8
20260505224047 7 308 3.2 16.1 0.00 0.25 0.25 90 1009.5
20260505223551 7 5 6.4 19.3 0.00 0.25 0.25 90 1009.8
20260505223047 7 321 6.4 20.9 0.00 0.25 0.25 89 1009.7
20260505222545 7 355 9.7 20.9 0.00 0.25 0.25 89 1009.3
20260505222044 7 55 4.8 20.9 0.00 0.25 0.25 89 1009.0
20260505221549 7 355 4.8 16.1 0.00 0.25 0.25 88 1009.0
20260505221041 8 309 3.2 14.5 0.00 0.25 0.25 87 1009.1
20260505220644 8 327 4.8 14.5 0.00 0.25 0.25 87 1009.0
20260505220044 8 346 4.8 20.9 0.00 0.25 0.25 85 1009.2
20260505215543 8 355 11.3 20.9 0.00 0.25 0.25 85 1009.2
20260505215042 8 40 8.0 17.7 0.00 0.25 0.25 85 1008.9
20260505214543 8 28 6.4 16.1 0.00 0.25 0.25 86 1009.0
20260505214047 8 11 4.8 17.7 0.00 0.25 0.25 86 1009.0
20260505213541 8 39 8.0 19.3 0.00 0.25 0.25 85 1009.2
20260505213041 8 329 4.8 24.1 0.00 0.25 0.25 86 1009.3
20260505212540 8 36 9.7 24.1 0.00 0.25 0.25 86 1009.0
20260505212041 8 288 12.9 24.1 0.00 0.25 0.25 85 1009.0
20260505211541 8 350 6.4 24.1 0.00 0.25 0.25 86 1008.8
20260505211037 8 355 9.7 19.3 0.00 0.25 0.25 86 1008.7
20260505210636 9 334 11.3 19.3 0.00 0.25 0.25 86 1008.8
20260505210059 9 5 6.4 25.7 0.00 0.25 0.25 85 1009.1
20260505205558 9 9 6.4 25.7 0.00 0.25 0.25 85 1009.3
20260505205058 9 170 4.8 19.3 0.00 0.25 0.25 85 1009.4
20260505204601 9 331 1.6 16.1 0.00 0.25 0.25 85 1009.2
20260505204056 9 11 8.0 20.9 0.00 0.25 0.25 84 1009.1
20260505203556 10 328 6.4 24.1 0.00 0.25 0.25 84 1008.9
20260505203101 10 11 6.4 24.1 0.00 0.25 0.25 84 1008.9
20260505202554 10 34 6.4 27.4 0.00 0.25 0.25 84 1008.9
20260505202054 10 101 9.7 27.4 0.00 0.25 0.25 84 1008.9
20260505201553 10 39 6.4 24.1 0.00 0.25 0.25 84 1008.9
20260505201052 10 24 11.3 22.5 0.00 0.25 0.25 85 1009.0
20260505200654 10 345 4.8 16.1 0.00 0.25 0.25 86 1008.9
20260505200052 10 350 6.4 12.9 0.00 0.25 0.25 85 1008.9
20260505195552 10 5 3.2 17.7 0.00 0.25 0.25 85 1009.2
20260505195052 10 329 8.0 20.9 0.00 0.25 0.25 85 1009.2
20260505194606 10 355 9.7 22.5 0.00 0.25 0.25 84 1009.3
20260505194052 10 360 8.0 22.5 0.00 0.25 0.25 84 1009.2
20260505193551 10 355 8.0 33.8 0.00 0.25 0.25 84 1009.0
20260505193050 10 9 16.1 33.8 0.00 0.25 0.25 85 1009.2
20260505192550 10 355 12.9 25.7 0.00 0.25 0.25 86 1009.4
20260505192050 10 348 6.4 22.5 0.00 0.25 0.25 89 1009.6
20260505191603 10 50 9.7 22.5 0.00 0.25 0.25 89 1009.7
20260505191050 10 355 8.0 17.7 0.00 0.25 0.25 90 1009.6
20260505190649 10 17 6.4 19.3 0.00 0.25 0.25 91 1009.5
20260505190051 10 347 6.4 20.9 0.00 0.25 0.25 91 1009.6
20260505185549 10 351 3.2 16.1 0.00 0.25 0.25 91 1009.8
20260505185049 10 24 4.8 17.7 0.00 0.25 0.25 91 1009.7
20260505184548 10 15 4.8 19.3 0.00 0.25 0.25 91 1009.3
20260505184048 10 17 3.2 19.3 0.00 0.25 0.25 91 1009.1
20260505183549 10 5 6.4 19.3 0.00 0.25 0.25 90 1009.0
20260505183046 10 34 3.2 24.1 0.00 0.25 0.25 91 1009.0
20260505182545 10 360 9.7 24.1 0.00 0.25 0.25 91 1008.9
20260505182049 10 5 8.0 16.1 0.00 0.25 0.25 91 1008.8
20260505181545 10 16 4.8 17.7 0.00 0.25 0.25 91 1008.8
20260505181046 10 87 3.2 17.7 0.00 0.25 0.25 91 1008.7
20260505180644 10 355 6.4 17.7 0.00 0.25 0.25 91 1008.7
20260505180054 10 12 4.8 16.1 0.00 0.25 0.25 91 1008.7
20260505175546 10 5 4.8 20.9 0.00 0.25 0.25 90 1008.7
20260505175045 10 11 6.4 20.9 0.00 0.25 0.25 89 1008.7
20260505174545 11 53 4.8 17.7 0.00 0.25 0.25 88 1008.9
20260505174045 11 34 3.2 17.7 0.00 0.25 0.25 88 1009.0
20260505173544 11 13 6.4 17.7 0.00 0.25 0.25 88 1009.1
20260505173048 11 278 6.4 19.3 0.00 0.25 0.25 87 1009.1
20260505172543 11 49 6.4 19.3 0.00 0.25 0.25 88 1009.7
20260505172042 11 360 4.8 16.1 0.00 0.25 0.25 88 1009.6
20260505171547 11 26 8.0 16.1 0.00 0.25 0.25 88 1009.5
20260505171042 11 310 1.6 19.3 0.00 0.25 0.25 89 1009.3
20260505170642 11 49 3.2 19.3 0.00 0.25 0.25 89 1009.6
20260505170041 11 327 6.4 16.1 0.00 0.25 0.25 89 1009.5
20260505165540 11 26 6.4 17.7 0.00 0.25 0.25 89 1009.3
20260505165039 11 323 6.4 17.7 0.00 0.25 0.25 89 1009.0
20260505164539 11 17 8.0 16.1 0.00 0.25 0.25 89 1008.8
20260505164039 11 32 3.2 16.1 0.00 0.25 0.25 89 1008.7
20260505163539 11 355 4.8 17.7 0.00 0.25 0.25 88 1008.5
20260505163037 11 360 6.4 20.9 0.00 0.25 0.25 88 1008.4
20260505162538 11 69 4.8 20.9 0.00 0.25 0.25 89 1008.2
20260505162036 11 19 8.0 16.1 0.00 0.25 0.25 88 1007.8
20260505161535 11 186 0.0 16.1 0.00 0.25 0.25 90 1008.0
20260505161037 11 333 3.2 19.3 0.00 0.25 0.25 89 1008.1
20260505160637 11 320 9.7 20.9 0.00 0.25 0.25 89 1008.2
20260505153055 12 341 4.8 16.1 0.00 0.25 0.25 86 1008.8
20260505152556 12 355 4.8 14.5 0.00 0.25 0.25 86 1008.9
20260505152054 12 15 3.2 14.5 0.00 0.25 0.25 85 1008.9
20260505151553 12 336 4.8 14.5 0.00 0.25 0.25 86 1008.6
20260505151053 12 46 3.2 12.9 0.00 0.25 0.25 85 1008.3
20260505150654 12 316 4.8 16.1 0.00 0.25 0.25 85 1008.4
20260505150108 12 355 6.4 16.1 0.00 0.25 0.25 85 1008.4
20260505140645 12 113 6.4 19.3 0.00 0.25 0.25 86 1007.9
20260505124554 11 43 6.4 27.4 0.00 0.25 0.25 91 1007.8
20260505124052 11 355 11.3 27.4 0.00 0.25 0.25 91 1007.9
20260505123550 11 82 11.3 37.0 0.00 0.25 0.25 91 1007.9
20260505123055 11 119 11.3 37.0 0.00 0.25 0.25 91 1007.8
20260505122543 11 44 11.3 32.2 0.00 0.25 0.25 92 1008.1
20260505122044 12 360 11.3 30.6 0.00 0.25 0.25 93 1007.8
20260505121612 12 33 8.0 20.9 0.00 0.25 0.25 93 1007.9
20260505121040 12 32 4.8 24.1 0.00 0.25 0.25 93 1007.8
20260505120641 12 360 8.0 24.1 0.00 0.25 0.25 92 1007.7
20260505120051 12 325 9.7 24.1 0.00 0.25 0.25 92 1007.7
20260505115550 12 24 6.4 27.4 0.00 0.25 0.25 92 1007.7
20260505115048 13 5 12.9 27.4 0.00 0.25 0.25 92 1007.4
20260505114547 13 331 6.4 32.2 0.03 0.25 0.25 92 1007.3
20260505114046 13 360 16.1 33.8 0.03 0.25 0.25 92 1007.0
20260505113544 14 345 14.5 33.8 0.10 0.25 0.25 93 1006.9
20260505113046 15 342 8.0 20.9 0.25 0.25 0.25 93 1006.9
20260505112541 15 329 8.0 20.9 0.25 0.25 0.25 93 1006.9
20260505112041 14 355 4.8 9.7 0.25 0.25 0.25 93 1006.9
20260505111542 14 355 3.2 9.7 0.25 0.25 0.25 93 1006.7
20260505111041 14 360 0.0 8.0 0.25 0.25 0.25 92 1006.5
20260505110637 14 311 1.6 8.0 0.25 0.25 0.25 92 1006.3
20260505102038 16 152 1.6 9.7 0.00 0.00 0.00 80 1004.6
20260505101542 16 134 3.2 14.5 0.00 0.00 0.00 80 1004.5
20260505101038 16 151 1.6 14.5 0.00 0.00 0.00 81 1004.3
20260505100638 16 159 3.2 9.7 0.00 0.00 0.00 81 1004.3
20260505100137 16 180 3.2 11.3 0.00 0.00 0.00 81 1004.2
20260505095600 16 122 1.6 11.3 0.00 0.00 0.00 81 1004.4
20260505095057 16 138 3.2 11.3 0.00 0.00 0.00 82 1004.4
20260505094557 16 143 1.6 11.3 0.00 0.00 0.00 82 1004.5
20260505094057 16 146 3.2 9.7 0.00 0.00 0.00 82 1004.3
20260505093556 16 142 1.6 9.7 0.00 0.00 0.00 83 1004.5
20260505093056 15 229 3.2 9.7 0.00 0.00 0.00 83 1004.4
20260505092558 15 184 1.6 11.3 0.00 0.00 0.00 85 1004.3
20260505092055 15 186 1.6 8.0 0.00 0.00 0.00 84 1004.7
20260505091616 15 165 1.6 9.7 0.00 0.00 0.00 85 1004.8
20260505091053 15 212 3.2 9.7 0.00 0.00 0.00 84 1004.7
20260505090654 15 124 1.6 8.0 0.00 0.00 0.00 84 1004.8
20260505090101 15 185 1.6 9.7 0.00 0.00 0.00 84 1004.9
20260505085554 15 85 1.6 9.7 0.00 0.00 0.00 84 1004.9
20260505085054 15 192 3.2 6.4 0.00 0.00 0.00 84 1004.8
20260505084554 15 169 1.6 11.3 0.00 0.00 0.00 85 1004.8
20260505084053 15 146 3.2 11.3 0.00 0.00 0.00 85 1004.8
20260505083553 15 128 3.2 8.0 0.00 0.00 0.00 85 1004.9
20260505083053 15 147 1.6 8.0 0.00 0.00 0.00 85 1004.9
20260505082551 15 125 1.6 8.0 0.00 0.00 0.00 85 1004.9
20260505082052 15 140 3.2 8.0 0.00 0.00 0.00 85 1004.8
20260505081551 15 165 1.6 9.7 0.00 0.00 0.00 84 1004.9
20260505081051 15 146 3.2 9.7 0.00 0.00 0.00 84 1004.9
20260505080650 15 143 0.0 9.7 0.00 0.00 0.00 85 1005.0
20260505080055 15 153 1.6 9.7 0.00 0.00 0.00 86 1005.3
20260505075555 14 157 1.6 3.2 0.00 0.00 0.00 87 1005.4
20260505075055 14 167 0.0 4.8 0.00 0.00 0.00 88 1005.5
20260505074554 14 119 0.0 3.2 0.00 0.00 0.00 88 1005.5
20260505074056 15 153 0.0 3.2 0.00 0.00 0.00 87 1005.7
20260505073553 15 148 0.0 1.6 0.00 0.00 0.00 86 1006.0
20260505073058 15 148 0.0 1.6 0.00 0.00 0.00 86 1006.0
20260505072550 15 165 0.0 1.6 0.00 0.00 0.00 86 1006.2
20260505072051 15 190 0.0 1.6 0.00 0.00 0.00 85 1006.3
20260505071549 15 190 0.0 0.0 0.00 0.00 0.00 85 1006.5
20260505071048 15 190 0.0 1.6 0.00 0.00 0.00 85 1006.5
20260505070649 15 190 0.0 1.6 0.00 0.00 0.00 83 1006.5
20260505070051 15 190 0.0 1.6 0.00 0.00 0.00 83 1006.4
20260505065549 15 190 0.0 1.6 0.00 0.00 0.00 82 1006.4
20260505065049 16 182 0.0 1.6 0.00 0.00 0.00 82 1006.1
20260505064548 16 182 0.0 1.6 0.00 0.00 0.00 82 1006.2
20260505064047 16 182 0.0 4.8 0.00 0.00 0.00 82 1006.0
20260505063546 16 182 0.0 4.8 0.00 0.00 0.00 81 1006.0
20260505063050 16 194 0.0 9.7 0.00 0.00 0.00 80 1005.8
20260505062545 16 188 1.6 11.3 0.00 0.00 0.00 78 1005.7
20260505062045 16 211 3.2 11.3 0.00 0.00 0.00 78 1005.6
20260505061547 16 200 1.6 8.0 0.00 0.00 0.00 79 1005.2
20260505061046 16 178 3.2 11.3 0.00 0.00 0.00 79 1004.8
20260505060645 16 173 4.8 11.3 0.00 0.00 0.00 80 1004.8
20260505060048 16 167 1.6 8.0 0.00 0.00 0.00 79 1004.9